When you browse on this site, cookies collect data to enhance your experience and personalize the content and advertising you see.
Visit our Privacy Policy to learn more. By continuing to use the site, you agree to this use of cookies and data.
  • In United Kingdom
  • List of Countries
  • For 7 days
  • Water Temperature
  • Weather Map
  • Weather Widgets
  • user-avatar
    Login

    Hourly Weather Cambridge

    Today, 18 September, Wednesday

    Time Temperature Precipitation Wind Pressure Humidity
    00:00 +10°C° 0 mm 1 mps 770 mmHg 83%
    01:00 +10°C° 0 mm 1 mps 770 mmHg 83%
    02:00 +9°C° 0 mm 1 mps 770 mmHg 83%
    03:00 +9°C° 0 mm 1 mps 769 mmHg 84%
    04:00 +9°C° 0 mm 1 mps 770 mmHg 84%
    05:00 +9°C° 0 mm 1 mps 770 mmHg 84%
    06:00 +9°C° 0 mm 1 mps 770 mmHg 82%
    07:00 +11°C° 0 mm 1 mps 770 mmHg 75%
    08:00 +12°C° 0 mm 1 mps 771 mmHg 69%
    09:00 +14°C° 0 mm 1 mps 771 mmHg 62%
    10:00 +15°C° 0 mm 2 mps 771 mmHg 58%
    11:00 +16°C° 0 mm 2 mps 770 mmHg 53%
    12:00 +17°C° 0 mm 2 mps 770 mmHg 48%
    13:00 +18°C° 0 mm 2 mps 770 mmHg 47%
    14:00 +18°C° 0 mm 2 mps 770 mmHg 46%
    15:00 +18°C° 0 mm 2 mps 770 mmHg 45%
    16:00 +17°C° 0 mm 2 mps 770 mmHg 49%
    17:00 +16°C° 0 mm 1 mps 770 mmHg 54%
    18:00 +15°C° 0 mm 1 mps 770 mmHg 58%
    19:00 +15°C° 0 mm 1 mps 770 mmHg 62%
    20:00 +14°C° 0 mm 2 mps 771 mmHg 66%
    21:00 +13°C° 0 mm 2 mps 771 mmHg 71%
    22:00 +12°C° 0 mm 2 mps 771 mmHg 73%
    23:00 +12°C° 0 mm 1 mps 771 mmHg 75%

    Tomorrow, 19 September, Thursday

    Time Temperature Precipitation Wind Pressure Humidity
    00:00 +12°C° 0 mm 1 mps 771 mmHg 78%
    01:00 +12°C° 0 mm 1 mps 771 mmHg 79%
    02:00 +11°C° 0 mm 1 mps 771 mmHg 80%
    03:00 +11°C° 0 mm 1 mps 771 mmHg 81%
    04:00 +11°C° 0 mm 1 mps 771 mmHg 82%
    05:00 +11°C° 0 mm 1 mps 771 mmHg 82%
    06:00 +11°C° 0 mm 1 mps 771 mmHg 83%
    07:00 +12°C° 0 mm 0 mps 771 mmHg 76%
    08:00 +14°C° 0 mm 0 mps 772 mmHg 69%
    09:00 +15°C° 0 mm 0 mps 772 mmHg 62%
    10:00 +16°C° 0 mm 0 mps 772 mmHg 59%
    11:00 +20°C° 0 mm 1 mps 772 mmHg 55%
    12:00 +20°C° 0 mm 2 mps 771 mmHg 52%
    13:00 +20°C° 0 mm 2 mps 771 mmHg 51%
    14:00 +20°C° 0 mm 2 mps 771 mmHg 50%
    15:00 +21°C° 0 mm 2 mps 771 mmHg 49%
    16:00 +19°C° 0 mm 2 mps 771 mmHg 55%
    17:00 +18°C° 0 mm 2 mps 770 mmHg 60%
    18:00 +17°C° 0 mm 2 mps 770 mmHg 66%
    19:00 +16°C° 0 mm 2 mps 771 mmHg 70%
    20:00 +15°C° 0 mm 2 mps 771 mmHg 75%
    21:00 +14°C° 0 mm 2 mps 771 mmHg 79%
    22:00 +13°C° 0 mm 2 mps 771 mmHg 81%
    23:00 +13°C° 0 mm 2 mps 771 mmHg 83%

    Day after tomorrow, 20 September, Friday

    Time Temperature Precipitation Wind Pressure Humidity
    00:00 +13°C° 0 mm 2 mps 771 mmHg 85%
    01:00 +12°C° 0 mm 2 mps 770 mmHg 87%
    02:00 +12°C° 0 mm 2 mps 770 mmHg 89%
    03:00 +12°C° 0 mm 2 mps 770 mmHg 91%
    04:00 +12°C° 0 mm 2 mps 769 mmHg 91%
    05:00 +12°C° 0 mm 2 mps 769 mmHg 92%
    06:00 +10°C° 0 mm 2 mps 769 mmHg 92%
    07:00 +12°C° 0 mm 3 mps 769 mmHg 84%
    08:00 +14°C° 0 mm 3 mps 769 mmHg 75%
    09:00 +17°C° 0 mm 4 mps 769 mmHg 66%
    10:00 +17°C° 0 mm 5 mps 768 mmHg 61%
    11:00 +19°C° 0 mm 5 mps 768 mmHg 56%
    12:00 +20°C° 0 mm 5 mps 767 mmHg 51%
    13:00 +20°C° 0 mm 5 mps 767 mmHg 49%
    14:00 +19°C° 0 mm 6 mps 766 mmHg 48%
    15:00 +19°C° 0 mm 6 mps 765 mmHg 46%
    16:00 +17°C° 0 mm 5 mps 765 mmHg 52%
    17:00 +15°C° 0 mm 5 mps 764 mmHg 58%
    18:00 +14°C° 0 mm 5 mps 764 mmHg 63%
    19:00 +14°C° 0 mm 5 mps 764 mmHg 66%
    20:00 +14°C° 0 mm 5 mps 764 mmHg 69%
    21:00 +13°C° 0 mm 5 mps 764 mmHg 72%
    22:00 +13°C° 0 mm 5 mps 763 mmHg 71%
    23:00 +13°C° 0 mm 5 mps 762 mmHg 71%

    21 September, Saturday

    Time Temperature Precipitation Wind Pressure Humidity
    00:00 +13°C° 0 mm 5 mps 762 mmHg 70%
    01:00 +13°C° 0 mm 5 mps 761 mmHg 70%
    02:00 +13°C° 0 mm 5 mps 761 mmHg 70%
    03:00 +13°C° 0 mm 4 mps 761 mmHg 70%
    04:00 +12°C° 0 mm 4 mps 760 mmHg 71%
    05:00 +12°C° 0 mm 4 mps 759 mmHg 72%
    06:00 +12°C° 0 mm 4 mps 759 mmHg 72%
    07:00 +13°C° 0 mm 5 mps 759 mmHg 67%
    08:00 +15°C° 0 mm 6 mps 759 mmHg 61%
    09:00 +17°C° 0 mm 6 mps 758 mmHg 55%
    10:00 +19°C° 0 mm 6 mps 758 mmHg 53%
    11:00 +20°C° 0 mm 6 mps 757 mmHg 50%
    12:00 +21°C° 0 mm 6 mps 757 mmHg 47%
    13:00 +21°C° 0 mm 6 mps 756 mmHg 48%
    14:00 +21°C° 0 mm 6 mps 755 mmHg 49%
    15:00 +21°C° 0 mm 6 mps 755 mmHg 50%
    16:00 +20°C° 0 mm 5 mps 754 mmHg 55%
    17:00 +19°C° 0 mm 5 mps 754 mmHg 59%
    18:00 +18°C° 0 mm 4 mps 754 mmHg 63%
    19:00 +18°C° 0 mm 4 mps 754 mmHg 66%
    20:00 +18°C° 0 mm 4 mps 753 mmHg 68%
    21:00 +18°C° 0 mm 4 mps 753 mmHg 71%
    22:00 +18°C° 0.1 mm 4 mps 753 mmHg 73%
    23:00 +18°C° 0.1 mm 4 mps 752 mmHg 75%

    22 September, Sunday

    Time Temperature Precipitation Wind Pressure Humidity
    00:00 +19°C° 0.1 mm 5 mps 752 mmHg 78%
    01:00 +18°C° 0.2 mm 4 mps 752 mmHg 80%
    02:00 +18°C° 0.2 mm 3 mps 751 mmHg 82%
    03:00 +18°C° 0.2 mm 3 mps 751 mmHg 85%
    04:00 +18°C° 0.1 mm 3 mps 751 mmHg 86%
    05:00 +18°C° 0.1 mm 3 mps 751 mmHg 88%
    06:00 +18°C° 0.1 mm 3 mps 751 mmHg 90%
    07:00 +18°C° 0.6 mm 3 mps 751 mmHg 90%
    08:00 +18°C° 0.6 mm 4 mps 751 mmHg 90%
    09:00 +18°C° 0.6 mm 4 mps 752 mmHg 90%
    10:00 +18°C° 0.2 mm 4 mps 752 mmHg 86%
    11:00 +17°C° 0.2 mm 4 mps 752 mmHg 83%
    12:00 +17°C° 0.2 mm 3 mps 752 mmHg 79%
    13:00 +18°C° 0 mm 4 mps 752 mmHg 74%
    14:00 +19°C° 0 mm 4 mps 752 mmHg 68%
    15:00 +20°C° 0 mm 4 mps 752 mmHg 63%
    16:00 +19°C° 0 mm 4 mps 752 mmHg 65%
    17:00 +18°C° 0 mm 3 mps 753 mmHg 67%
    18:00 +17°C° 0 mm 3 mps 753 mmHg 69%
    19:00 +15°C° 0 mm 4 mps 753 mmHg 73%
    20:00 +15°C° 0 mm 4 mps 754 mmHg 76%
    21:00 +14°C° 0 mm 5 mps 754 mmHg 80%
    22:00 +13°C° 0 mm 4 mps 755 mmHg 82%
    23:00 +13°C° 0 mm 4 mps 755 mmHg 83%

    23 September, Monday

    Time Temperature Precipitation Wind Pressure Humidity
    00:00 +12°C° 0 mm 4 mps 755 mmHg 85%
    01:00 +12°C° 0 mm 4 mps 755 mmHg 87%
    02:00 +11°C° 0 mm 3 mps 756 mmHg 89%
    03:00 +11°C° 0 mm 3 mps 756 mmHg 92%
    04:00 +10°C° 0 mm 3 mps 756 mmHg 92%
    05:00 +10°C° 0 mm 3 mps 756 mmHg 92%
    06:00 +10°C° 0 mm 3 mps 756 mmHg 93%
    07:00 +12°C° 0 mm 3 mps 756 mmHg 85%
    08:00 +14°C° 0 mm 3 mps 756 mmHg 77%
    09:00 +15°C° 0 mm 4 mps 757 mmHg 69%
    10:00 +17°C° 0 mm 4 mps 756 mmHg 66%
    11:00 +19°C° 0 mm 5 mps 756 mmHg 62%
    12:00 +20°C° 0 mm 6 mps 756 mmHg 59%
    13:00 +19°C° 0.1 mm 6 mps 755 mmHg 63%
    14:00 +19°C° 0.1 mm 6 mps 755 mmHg 67%
    15:00 +17°C° 0.1 mm 6 mps 754 mmHg 72%
    16:00 +16°C° 0.8 mm 5 mps 754 mmHg 77%
    17:00 +16°C° 0.8 mm 5 mps 754 mmHg 83%
    18:00 +15°C° 0.8 mm 5 mps 754 mmHg 89%
    19:00 +15°C° 0.2 mm 4 mps 754 mmHg 90%
    20:00 +17°C° 0.2 mm 4 mps 754 mmHg 92%
    21:00 +17°C° 0.2 mm 4 mps 754 mmHg 93%
    22:00 +17°C° 0.1 mm 4 mps 754 mmHg 93%
    23:00 +16°C° 0.1 mm 5 mps 754 mmHg 93%
    Show more